Grant County, OR

8:51 AM PDT on September 26, 2017 (GMT -0700)
Grant County Regional

Weather History for KGCD - July, 2013

Change the Weather History Date:

Wednesday, July 10, 2013

  Actual Average (KBNO) Record (KBNO)
Temperature  
Mean Temperature 77 °F -  
Max Temperature 94 °F 84 °F 103 °F (2002)
Min Temperature 60 °F 44 °F 35 °F (1983)
Cooling Degree Days 12    
Growing Degree Days 27 (Base 50)    
Moisture  
Dew Point 41 °F    
Average Humidity 28    
Maximum Humidity 49    
Minimum Humidity 15    
Precipitation  
Precipitation 0.00 in - - ()
Sea Level Pressure  
Sea Level Pressure 30.01 in    
Wind  
Wind Speed 7 mph (NW)    
Max Wind Speed 15 mph    
Max Gust Speed 23 mph    
Visibility 10 miles    
Events      
Averages and records for this station are not official NWS values.
T = Trace of Precipitation, MM = Missing Value Source: NWS Daily Summary

Daily Weather History Graph

Daily Weather History Graph

Search for Another Location

Airport or City:

Trip Planner

Search our weather history database for the weather conditions in past years. The results will help you decide how hot, cold, wet, or windy it might be!

Date:

Astronomy

Jul. 10, 2013 Rise Set
Actual Time 5:21 AM PDT 8:40 PM PDT
Civil Twilight 4:45 AM PDT 9:16 PM PDT
Nautical Twilight 3:59 AM PDT 10:02 PM PDT
Astronomical Twilight 3:01 AM PDT 11:00 PM PDT
Moon 7:54 AM PDT (7/10) 9:44 PM PDT (7/10)
Length of Visible Light 16h 30m
Length of Day
15h 18m
Waxing Crescent, 6% of the Moon is Illuminated
Jul 10
Waxing Crescent
Jul 15
First Quarter
Jul 22
Full
Jul 29
Last Quarter
Aug 6
New

Hourly Weather History & Observations

Time (PDT) Temp. Dew Point Humidity Pressure Visibility Wind Dir Wind Speed Gust Speed Precip Events Conditions
12:15 AM 70.7 °F 39.7 °F 32% 30.08 in 10.0 mi SSW 5.8 mph - N/A   Clear
12:55 AM 71.1 °F 39.6 °F 32% 30.09 in 10.0 mi SW 4.6 mph - N/A   Clear
1:15 AM 69.8 °F 39.6 °F 33% 30.09 in 10.0 mi SW 5.8 mph - N/A   Clear
1:35 AM 70.5 °F 39.6 °F 32% 30.09 in 10.0 mi WSW 5.8 mph - N/A   Clear
1:55 AM 68.7 °F 39.6 °F 34% 30.08 in 10.0 mi WSW 5.8 mph - N/A   Clear
2:15 AM 68.2 °F 39.7 °F 35% 30.08 in 10.0 mi SW 5.8 mph - N/A   Clear
2:35 AM 67.3 °F 39.9 °F 37% 30.08 in 10.0 mi SW 5.8 mph - N/A   Clear
2:55 AM 67.5 °F 39.9 °F 37% 30.08 in 10.0 mi Calm Calm - N/A   Clear
3:15 AM 63.5 °F 41.2 °F 44% 30.08 in 10.0 mi ESE 8.1 mph - N/A   Clear
3:35 AM 63.3 °F 42.1 °F 46% 30.08 in 10.0 mi East 8.1 mph - N/A   Clear
3:55 AM 62.8 °F 41.9 °F 46% 30.08 in 10.0 mi East 8.1 mph - N/A   Clear
4:15 AM 62.6 °F 41.5 °F 46% 30.09 in 10.0 mi East 6.9 mph - N/A   Clear
4:35 AM 62.8 °F 40.6 °F 44% 30.08 in 10.0 mi East 6.9 mph - N/A   Clear
4:55 AM 63.5 °F 40.3 °F 43% 30.09 in 10.0 mi East 6.9 mph - N/A   Clear
5:15 AM 62.4 °F 40.5 °F 44% 30.09 in 10.0 mi East 4.6 mph - N/A   Clear
5:35 AM 60.1 °F 40.6 °F 49% 30.08 in 10.0 mi ESE 9.2 mph - N/A   Clear
5:55 AM 60.4 °F 41.2 °F 49% 30.09 in 10.0 mi ESE 8.1 mph - N/A   Clear
6:15 AM 61.7 °F 41.4 °F 47% 30.09 in 10.0 mi East 9.2 mph - N/A   Clear
6:35 AM 62.1 °F 41.5 °F 47% 30.09 in 10.0 mi ESE 10.4 mph - N/A   Clear
6:55 AM 62.6 °F 42.3 °F 47% 30.09 in 10.0 mi East 9.2 mph - N/A   Clear
7:15 AM 63.9 °F 41.5 °F 44% 30.08 in 10.0 mi ESE 9.2 mph - N/A   Clear
7:35 AM 64.4 °F 41.5 °F 43% 30.08 in 10.0 mi ESE 9.2 mph - N/A   Clear
7:55 AM 67.5 °F 42.8 °F 41% 30.08 in 10.0 mi East 4.6 mph - N/A   Clear
8:15 AM 69.3 °F 43.0 °F 39% 30.08 in 10.0 mi East 4.6 mph - N/A   Clear
8:35 AM 71.4 °F 43.3 °F 36% 30.07 in 10.0 mi ESE 3.5 mph - N/A   Clear
8:55 AM 73.6 °F 42.4 °F 33% 30.08 in 10.0 mi Calm Calm - N/A   Clear
9:15 AM 75.6 °F 42.4 °F 31% 30.07 in 10.0 mi West 4.6 mph - N/A   Clear
9:35 AM 76.6 °F 43.0 °F 30% 30.07 in 10.0 mi West 4.6 mph - N/A   Clear
9:55 AM 78.3 °F 43.7 °F 29% 30.07 in 10.0 mi WNW 6.9 mph - N/A   Clear
10:15 AM 79.0 °F 43.3 °F 28% 30.06 in 10.0 mi West 5.8 mph - N/A   Clear
10:35 AM 80.6 °F 42.3 °F 26% 30.05 in 10.0 mi West 6.9 mph - N/A   Clear
10:55 AM 82.0 °F 40.8 °F 23% 30.05 in 10.0 mi West 5.8 mph - N/A   Clear
11:15 AM 82.9 °F 40.5 °F 22% 30.05 in 10.0 mi WNW 8.1 mph - N/A   Clear
11:35 AM 84.2 °F 41.4 °F 22% 30.04 in 10.0 mi West 4.6 mph - N/A   Clear
11:55 AM 86.0 °F 42.1 °F 21% 30.03 in 10.0 mi NW 8.1 mph - N/A   Clear
12:15 PM 86.0 °F 43.2 °F 22% 30.03 in 10.0 mi WNW 9.2 mph - N/A   Clear
12:35 PM 88.2 °F 42.1 °F 20% 30.02 in 10.0 mi WNW 11.5 mph - N/A   Clear
12:55 PM 89.6 °F 41.4 °F 18% 30.01 in 10.0 mi WNW 6.9 mph 17.3 mph N/A   Clear
1:15 PM 89.8 °F 40.1 °F 18% 29.99 in 10.0 mi West 9.2 mph - N/A   Clear
1:35 PM 91.0 °F 40.6 °F 17% 29.99 in 10.0 mi West 8.1 mph - N/A   Clear
1:55 PM 93.2 °F 40.8 °F 16% 29.98 in 10.0 mi WNW 10.4 mph 18.4 mph N/A   Clear
2:15 PM 90.3 °F 40.5 °F 17% 29.97 in 10.0 mi WNW 5.8 mph 10.4 mph N/A   Clear
2:35 PM 93.0 °F 40.5 °F 16% 29.96 in 10.0 mi WNW 15.0 mph 23.0 mph N/A   Clear
2:55 PM 92.5 °F 40.5 °F 16% 29.95 in 10.0 mi West 9.2 mph 19.6 mph N/A   Clear
3:15 PM 93.2 °F 40.8 °F 16% 29.94 in 10.0 mi NNW 9.2 mph - N/A   Clear
3:35 PM 93.0 °F 40.1 °F 16% 29.94 in 10.0 mi WNW 6.9 mph 16.1 mph N/A   Clear
3:55 PM 94.1 °F 39.9 °F 15% 29.93 in 10.0 mi West 12.7 mph - N/A   Clear
4:15 PM 93.4 °F 39.0 °F 15% 29.92 in 10.0 mi NW 5.8 mph 18.4 mph N/A   Clear
4:35 PM 93.0 °F 38.8 °F 15% 29.91 in 10.0 mi NW 10.4 mph - N/A   Clear
4:55 PM 91.8 °F 37.9 °F 15% 29.91 in 10.0 mi West 8.1 mph - N/A   Clear
5:15 PM 89.8 °F 39.7 °F 17% 29.90 in 10.0 mi WNW 12.7 mph 17.3 mph N/A   Clear
5:35 PM 89.8 °F 39.6 °F 17% 29.90 in 10.0 mi NW 12.7 mph - N/A   Clear
5:55 PM 90.9 °F 39.6 °F 17% 29.90 in 10.0 mi NW 12.7 mph 17.3 mph N/A   Clear
6:15 PM 89.4 °F 39.4 °F 17% 29.90 in 10.0 mi NW 15.0 mph 18.4 mph N/A   Clear
6:35 PM 89.8 °F 40.6 °F 18% 29.89 in 10.0 mi North 15.0 mph - N/A   Clear
6:55 PM 88.3 °F 41.2 °F 19% 29.89 in 10.0 mi North 10.4 mph 19.6 mph N/A   Clear
7:15 PM 87.6 °F 40.6 °F 19% 29.89 in 10.0 mi North 12.7 mph - N/A   Clear
7:35 PM 87.1 °F 40.5 °F 19% 29.90 in 10.0 mi NNW 6.9 mph - N/A   Clear
7:55 PM 85.1 °F 43.2 °F 23% 29.90 in 10.0 mi North 8.1 mph 17.3 mph N/A   Clear
8:15 PM 83.1 °F 43.0 °F 24% 29.90 in 10.0 mi North 9.2 mph - N/A   Clear
8:35 PM 81.5 °F 41.9 °F 25% 29.91 in 10.0 mi North 8.1 mph - N/A   Clear
8:55 PM 79.5 °F 41.7 °F 26% 29.92 in 10.0 mi North 4.6 mph - N/A   Clear
9:15 PM 77.7 °F 41.0 °F 27% 29.94 in 10.0 mi SW 4.6 mph - N/A   Clear
9:35 PM 76.1 °F 39.7 °F 27% 29.95 in 10.0 mi West 6.9 mph - N/A   Clear
9:55 PM 75.7 °F 39.0 °F 27% 29.96 in 10.0 mi NW 10.4 mph 20.7 mph N/A   Clear
10:15 PM 75.2 °F 37.8 °F 26% 29.97 in 10.0 mi NW 9.2 mph - N/A   Clear
10:35 PM 74.7 °F 36.7 °F 25% 29.97 in 10.0 mi NNW 10.4 mph 16.1 mph N/A   Clear
10:55 PM 73.4 °F 36.1 °F 26% 29.97 in 10.0 mi NW 6.9 mph - N/A   Clear
11:15 PM 72.0 °F 35.6 °F 26% 29.97 in 10.0 mi NW 6.9 mph - N/A   Clear
11:35 PM 70.5 °F 35.1 °F 27% 29.98 in 10.0 mi West 6.9 mph - N/A   Clear
11:55 PM 71.8 °F 34.9 °F 26% 29.97 in 10.0 mi NNW 3.5 mph - N/A   Clear